CAPE
431 443 314 245 280 244 194 29 0 0 0 0 0 0 0 0 0 0 72 269 489 811 916 974 1212 1693 2096 2284 2338 2372 2390 2392 2407 2429 2414 2279 2079 2006 2062 2201 2291 2283 2282 2390 2478 2511 2486 2447 2392 2382 2387 2401 2419 2444 2417 2124 1754 1929 2114 2004 1819 1900 1994 1979 1782 1883 1902 1864 2021 2166 2233 2432 2446 2591 2628 2700 2708 2758 2824 2929 3102 3212 3254 3296 3355
332 418 386 260 186 187 210 145 10 0 0 0 0 0 0 0 0 0 16 110 330 708 873 970 1044 1224 1616 2007 2183 2218 2218 2246 2305 2349 2381 2322 2207 2124 2089 2128 2213 2222 2274 2360 2423 2362 2311 2319 2304 2293 2310 2357 2410 2442 2426 2220 2088 2197 2261 2148 2112 2168 2194 2134 2168 2210 2186 2236 2330 2306 2330 2473 2584 2626 2669 2715 2747 2806 2926 3112 3272 3355 3371 3415 3415
462 450 405 339 220 144 120 144 99 5 0 0 0 0 0 0 0 0 0 8 164 356 725 897 1030 1138 1228 1494 1825 1991 2050 2093 2145 2228 2273 2310 2274 2227 2200 2171 2131 2147 2188 2270 2290 2277 2304 2288 2290 2273 2218 2218 2316 2407 2434 2390 2357 2374 2315 2256 2219 2197 2236 2297 2311 2326 2386 2454 2408 2342 2410 2496 2580 2680 2759 2780 2822 2906 3096 3302 3398 3436 3430 3366 3278
488 498 475 451 341 206 115 96 94 69 8 0 0 0 0 0 0 0 0 0 0 170 220 688 896 1073 1190 1285 1474 1707 1863 1945 1997 2081 2177 2224 2254 2245 2239 2249 2278 2259 2177 2127 2125 2186 2291 2335 2349 2293 2125 2074 2154 2279 2380 2444 2454 2448 2412 2348 2346 2346 2318 2339 2414 2492 2565 2546 2486 2424 2466 2506 2638 2732 2672 2693 2864 3105 3279 3402 3460 3424 3306 3116 3384
492 503 525 568 503 374 250 144 105 90 64 6 0 0 0 0 1 1 0 0 0 0 116 97 116 731 1035 1208 1330 1488 1640 1763 1853 1945 2068 2148 2178 2208 2241 2270 2304 2342 2355 2266 2264 2050 2112 2230 2320 2300 2197 2081 2134 2201 2316 2386 2421 2469 2466 2461 2478 2540 2599 2618 2660 2727 2708 2641 2590 2523 2535 2546 2618 2587 2520 2718 3055 3208 3342 3392 3374 3218 3015 3329 3765
514 518 549 578 591 578 438 312 214 149 90 25 0 0 0 0 0 0 16 0 0 0 0 66 119 50 162 657 1014 1269 1464 1600 1719 1835 1960 2089 2167 2206 2237 2290 2320 2352 2370 2390 2343 2197 2074 2109 2209 2292 2302 2254 2218 2257 2376 2447 2385 2376 2452 2527 2580 2619 2639 2636 2640 2625 2626 2634 2604 2601 2564 2607 2582 2563 2694 2962 3124 3245 3270 3234 3093 2973 3213 3710 3907
542 554 591 747 799 670 678 686 668 382 209 110 13 0 0 0 0 0 1 29 26 6 0 2 124 132 89 128 342 770 1176 1450 1618 1744 1862 1997 2135 2198 2236 2282 2324 2338 2342 2369 2396 2391 2358 2288 2217 2189 2243 2322 2366 2406 2469 2506 2469 2402 2420 2481 2539 2602 2676 2672 2539 2495 2548 2550 2561 2586 2592 2577 2619 2688 2758 2852 3002 3086 3062 3046 2932 2929 3462 3895 3851
576 622 628 658 831 874 779 770 782 764 731 512 136 42 0 0 0 0 0 0 53 85 70 38 42 182 199 174 209 418 761 1148 1453 1646 1765 1888 2043 2172 2237 2273 2292 2301 2314 2319 2334 2368 2396 2421 2430 2389 2249 2163 2232 2343 2400 2472 2484 2521 2524 2476 2526 2589 2673 2735 2742 2646 2503 2442 2458 2550 2572 2572 2562 2639 2705 2730 2781 2818 2928 2996 3016 3057 3422 3760 3625
762 724 727 744 773 923 946 861 890 907 906 892 880 790 238 17 0 0 0 0 1 70 143 143 122 144 263 324 329 411 591 868 1188 1462 1659 1784 1891 2041 2159 2229 2243 2260 2278 2282 2269 2279 2324 2370 2419 2457 2463 2658 2493 2357 2261 2300 2360 2424 2486 2537 2580 2628 2704 2739 2754 2700 2564 2382 2368 2429 2534 2570 2574 2560 2556 2534 2703 2872 3066 3124 3101 3121 3422 2738 2246
1090 982 922 912 899 921 942 968 1000 1023 1018 1018 1008 984 968 872 593 0 0 0 0 1 78 198 237 213 226 352 472 559 644 764 1079 1258 1488 1643 1766 1870 1988 2092 2163 2190 2202 2204 2219 2213 2211 2232 2275 2764 2878 2890 2640 2474 2446 2442 2510 2470 2480 2444 2444 2484 2541 2578 2574 2533 2416 2351 2388 2474 2547 2584 2582 2550 2521 2586 2779 3032 3065 3065 3051 3225 2781 1924 1870
1366 1387 1243 1120 1063 1028 1014 1026 1053 1074 1089 1062 1064 1054 1041 1059 1024 901 666 0 0 1 20 97 253 326 296 311 466 664 775 820 928 1084 1294 1503 1626 1731 1812 1916 2021 2098 2122 2142 2142 2128 2131 2139 2145 2436 3157 3576 3236 2854 2627 2581 2578 2598 2620 2644 2655 2653 2624 2590 2588 2582 2553 2488 2467 2512 2577 2618 2624 2560 2570 2695 2860 2975 3018 2878 3022 2920 2124 1858 2176
1382 1425 1444 1451 1324 1142 1152 1128 1151 1157 1168 1163 1153 1122 1125 1121 1111 1112 1063 967 814 256 0 34 115 261 359 373 405 584 765 882 970 1040 1140 1302 1480 1580 1663 1739 1835 1936 2018 2061 2066 2059 2054 2048 2057 2075 2121 2269 2573 2812 2902 2833 2734 2662 2663 2698 2725 2726 2729 2712 2686 2647 2582 2540 2522 2539 2560 2602 2582 2561 2592 2658 2760 2803 2746 2689 2733 2244 1852 2086 2357
1256 1364 1515 1510 1430 1465 1374 1282 1219 1278 1284 1286 1234 1223 1240 1236 1229 1235 1244 1247 1237 1102 822 108 80 163 299 379 422 509 690 843 994 1085 1145 1202 1306 1438 1494 1585 1642 1724 1826 1896 1944 1965 1982 1984 1986 1988 2014 2671 2957 2644 2600 2667 2754 2793 2778 2748 2722 2723 2722 2731 2742 2752 2754 2710 2677 2650 2582 2530 2509 2525 2542 2707 2710 2414 2120 2178 2249 2193 2181 2274 2464
1099 1480 1476 1478 1480 1574 1561 1444 1261 1274 1386 1359 1366 1366 1369 1351 1342 1365 1446 1544 1560 1469 1370 1118 724 300 295 367 450 494 611 773 954 1072 1155 1218 1266 1328 1390 1454 1498 1548 1626 1714 1784 1841 1885 1910 1908 1894 1898 1971 2138 2348 2465 2528 2538 2544 2563 2593 2626 2626 2594 2607 2649 2658 2667 2697 2707 2688 2667 2621 2592 2557 2531 2513 2420 2254 2331 2615 2730 2763 2623 2556 2576
1114 1235 1541 1563 1577 1700 1774 1714 1602 1430 1489 1446 1473 1502 1513 1482 1452 1451 1500 1733 1959 1916 1726 1416 1032 634 411 469 502 582 641 755 894 1051 1149 1224 1277 1313 1354 1392 1433 1472 1506 1566 1647 1718 1770 1806 1827 1822 1794 1768 1802 1953 2118 2266 2370 2431 2442 2452 2479 2514 2532 2532 2482 2464 2446 2406 2482 2562 2604 2606 2633 2685 2722 2687 2529 2255 2723 3082 3090 3120 3135 3044 2831
1213 1177 1412 1788 1840 1827 1896 1868 1797 1784 1724 1660 1656 1693 1669 1612 1551 1514 1628 1767 2040 2274 2248 1956 1453 1075 692 618 650 699 740 783 875 990 1123 1212 1282 1333 1356 1370 1394 1435 1476 1503 1532 1606 1678 1730 1754 1777 1761 1742 1722 1732 1963 2015 2092 2187 2250 2310 2346 2371 2381 2354 2315 2244 2177 2106 2044 2076 2307 2518 2637 2728 2757 2700 2442 2462 3089 3263 3102 3064 3132 3283 3256
1421 1410 1339 1316 1725 2001 2074 2035 2005 1976 1978 1996 1954 1932 1902 1819 1780 1720 1745 1894 2037 2256 2398 2283 1937 1379 953 733 784 808 838 882 921 976 1056 1174 1248 1312 1355 1372 1373 1392 1432 1470 1489 1504 1560 1634 1696 1719 1738 1741 1740 1746 1754 1825 1982 2024 2057 2098 2128 2132 2124 2070 2026 2056 2118 2113 1999 1893 1872 2002 2144 2238 2253 2184 2227 2860 3320 3260 3119 3060 3057 3061 3208
1490 1446 1332 1248 1146 1350 1791 2088 2186 2198 2263 2315 2262 2190 2122 2066 1948 1915 1912 1970 2096 2289 2419 2488 2402 1983 1314 925 900 910 924 946 992 1026 1065 1121 1180 1246 1302 1340 1364 1393 1424 1460 1478 1489 1554 2156 2166 1684 1719 1746 1781 1825 1855 1870 1874 1922 1997 2036 2060 2056 2053 2045 2081 2150 2198 2038 1960 1947 1932 1929 1944 1935 2001 2145 2631 3172 3357 3021 2991 2996 3073 3102 3157
1768 1828 1804 1760 1527 1213 1212 1323 1492 1940 2195 2303 2260 2137 2047 1998 1983 2010 2030 2057 2100 2213 2354 2503 2622 2465 1904 1232 938 971 973 988 1028 1069 1111 1152 1183 1226 1246 1268 1290 1334 1370 1408 1440 1465 1501 1802 2419 2154 1767 1756 1801 1838 1879 1904 1927 1953 1988 1991 1978 1955 1950 1941 1982 2012 2000 2105 2154 2194 2224 2266 2393 2560 2748 2997 3371 3528 3304 3171 3150 3169 3158 3149 3246
1911 2034 2007 1987 1946 1873 1731 1486 1453 1430 1478 1715 1800 1779 1876 2046 2104 2114 2136 2140 2146 2175 2261 2450 2682 2772 2520 1916 1192 1008 1024 1031 1054 1102 1152 1179 1218 1248 1275 1275 1296 1304 1304 1321 1333 1382 1439 1507 1560 1736 2007 1930 1864 1862 1878 1895 1920 1970 1989 1983 1924 1900 1876 1890 1899 1886 1901 2106 2228 2371 2548 2785 3094 3263 3369 3438 3324 3243 3224 3246 3224 3309 3284 3202 3235
1864 1980 2106 2206 2335 2409 2298 2036 1895 1800 1665 1539 1483 1768 2000 2093 2134 2160 2193 2206 2209 2208 2268 2382 2556 2767 2750 2417 1822 1192 1091 1093 1090 1138 1176 1213 1251 1278 1301 1308 1328 1331 1342 1337 1325 1359 1418 1486 1549 1582 1599 1747 1907 1946 1919 1931 1946 1971 1979 1982 1976 1963 1946 1907 1863 2942 2424 2240 2336 2540 2789 3085 3293 3316 3262 3213 3306 3394 3489 3374 3258 3228 3244 3220 3204
1636 1836 1966 2161 2290 3090 3422 3352 2872 2266 1990 1843 1662 1527 2004 2130 2157 2196 2204 2232 2247 2261 2307 2391 2454 2680 2860 2687 2264 1688 1232 1216 1194 1200 1220 1258 1300 1322 1335 1341 1353 1385 1391 1369 1358 1374 1433 1491 1550 1594 1630 1666 1703 1735 1814 1905 1950 1978 2006 2024 2038 2075 2068 2007 1944 1883 2195 2497 2440 2478 2659 2871 3039 3088 3149 3288 3414 3426 3373 3452 3502 3438 3354 3182 3144
1448 1587 1786 1903 2042 2330 3072 3268 3124 2975 2659 2250 1991 1765 2044 2169 2214 2226 2250 2276 2310 2336 2384 2447 2486 2662 2856 2850 2608 2187 1660 1320 1311 1316 1316 1330 1349 1348 1376 1398 1401 1435 1420 1412 1397 1409 1451 1512 1580 1637 1705 1758 1804 1861 1929 2007 2052 2038 1989 1997 2046 2094 2082 2056 2073 2146 2225 2278 2288 2249 2406 2603 2801 2996 3183 3279 3324 3416 3561 3589 3649 3594 3546 3471 3436
246 760 1345 1715 1777 1969 2706 2805 2546 2812 3068 2878 2413 2089 2105 2256 2290 2292 2328 2355 2385 2417 2466 2527 2612 2744 2845 2885 2813 2530 2200 1812 1456 1428 1430 1438 1454 1459 1440 1432 1483 1498 1473 1468 1460 1466 1495 1546 1620 1702 1782 1849 1919 2012 2099 2171 2192 2144 2031 1980 2068 2162 2222 2338 2463 2530 2531 2457 2362 2353 2328 2503 2700 2921 3090 3160 3330 3463 3502 3487 3354 3238 3150 3232 3127
104 340 726 1274 1658 1899 2676 3119 2965 2900 3017 2940 2806 2402 2266 2344 2368 2398 2409 2429 2480 2526 2572 2606 2695 2767 2807 2827 2842 2736 2463 2304 1991 1629 1534 1542 1557 1554 1533 1517 1488 1560 1570 1535 1526 1558 1588 1639 1705 1802 1886 1964 2058 2150 2208 2244 2229 2138 2046 2116 2333 2496 2571 2563 2622 2674 2666 2611 2529 2474 2488 2559 2752 2880 2928 2957 3068 3038 2939 2864 2708 2642 2660 2545 2448
173 480 769 1000 1551 2192 2978 2908 2900 3019 3127 3087 3020 2839 2435 2445 2444 2466 2500 2536 2570 2624 2655 2712 2760 2790 2779 2750 2783 2820 2663 2466 2278 2068 1778 1644 1648 1643 1630 1621 1584 1585 1640 1630 1639 1668 1691 1739 1842 1940 2022 2114 2184 2240 2277 2286 2227 2156 2088 1994 1870 1816 1844 1926 2045 2152 2344 2554 2646 2710 2739 2779 2885 2950 2945 2971 2996 2993 2870 2775 2556 2269 2091 1997 1916
51 156 318 826 2008 2542 2426 2406 2548 2690 2855 3029 3193 3043 2768 2488 2535 2535 2584 2619 2657 2687 2708 2760 2804 2785 2735 2712 2708 2753 2720 2556 2405 2278 2098 1768 1695 1710 1708 1716 1680 1626 1709 1746 1784 1814 1833 1878 1926 2043 2162 2266 2319 2340 2340 2336 2317 2248 2194 2130 2069 1952 1848 1770 1674 1802 2028 2278 2554 2756 2856 2922 2884 2831 2845 2916 2986 2974 2896 2612 2203 1983 1810 1718 1662
4 13 90 397 1171 1934 1985 2083 2335 2600 2804 3133 3345 3322 3035 2665 2604 2616 2647 2682 2689 2693 2701 2740 2758 2722 2693 2666 2654 2692 2692 2602 2454 2336 2247 2074 1831 1733 1750 1734 1720 1698 1774 1845 1933 2001 2033 2056 2074 2135 2235 2335 2406 2439 2435 2406 2356 2294 2228 2186 2143 2056 1959 1836 1771 1783 1917 2092 2307 2478 2585 2596 2594 2632 2713 2826 2923 2934 2669 2099 1799 1716 1644 1645 1619
3 4 28 316 856 1407 1659 1894 2154 2436 2631 3057 3426 3456 3391 2994 2650 2680 2672 2668 2649 2653 2651 2639 2602 2598 2604 2578 2582 2580 2572 2556 2496 2352 2311 2217 2084 1858 1717 1742 1752 1762 1767 1864 1954 2033 2130 2157 2182 2244 2336 2400 2472 2489 2466 2383 2320 2258 2228 2216 2190 2091 2013 1977 2068 2217 2339 2350 2348 2370 2340 2305 2366 2468 2642 2783 2862 2858 2293 2039 1793 1606 1637 1637 1695
2 2 23 277 592 1170 1560 1546 1537 1801 2407 3154 3611 3592 3396 3243 3022 2687 2710 2686 2666 2630 2555 2501 2474 2464 2491 2521 2494 2485 2487 2494 2428 2338 2343 2292 2192 2022 1839 1666 1754 1784 1779 1760 1800 1870 1908 1955 2020 2121 2212 2354 2422 2437 2407 2323 2260 2230 2226 2235 2208 2158 2108 2195 2344 2586 2807 2918 2898 2788 2711 2650 2661 2636 2703 2836 2904 2624 2284 2166 1891 1633 1602 1784 1814
3 4 6 157 560 1136 1185 1116 1246 1882 2500 3182 3621 3667 3538 3291 3078 2842 2642 2689 2660 2641 2640 2609 2542 2493 2478 2440 2393 2442 2478 2469 2462 2516 2523 2443 2386 2264 2076 1838 1775 1788 1775 1761 1770 1747 1668 1666 1704 1765 1851 1959 2052 2112 2139 2138 2131 2132 2170 2212 2225 2218 2260 2366 2499 2673 2846 3006 3128 3092 3024 2990 2972 2980 3007 3031 2940 2538 2253 2143 1870 1498 1646 1844 2034
2 2 2 47 422 886 1022 1116 1612 2109 2551 3189 3656 3723 3461 3151 3005 2893 2889 2825 2723 2725 2697 2699 2707 2701 2687 2627 2598 2611 2649 2623 2623 2648 2618 2615 2537 2421 2256 2054 1861 1756 1894 1840 1818 1779 1703 1707 1698 1722 1795 1869 1919 1939 1945 1947 1958 2012 2059 2134 2218 2333 2499 2616 2730 2759 2681 2654 2786 3047 3158 3204 3214 3050 2820 2894 2634 2382 2219 2220 1958 1650 1683 1835 1912
2 40 226 337 532 764 929 1352 1815 2132 2588 3120 3470 3573 3508 3289 2999 2956 2963 2932 2941 2912 2810 2795 2788 2759 2755 2751 2744 2719 2708 2664 2618 2640 2656 2640 2609 2555 2456 2278 2068 1932 2046 2042 2044 2012 1998 1981 1958 1876 1842 1896 1951 2017 2069 2045 1994 1970 1991 2068 2204 2386 2566 2737 2749 2752 2578 2446 2617 2787 3045 2680 2376 2416 2209 2290 2128 2166 2127 2006 1900 1584 1678 1726 1785
150 265 383 590 736 905 1150 1467 1940 2115 2414 2896 3262 3366 3279 3230 3185 3010 2893 2942 3011 3013 2981 2982 2945 2885 2867 2880 2881 2841 2777 2721 2710 2726 2707 2665 2686 2694 2641 2495 2316 2118 2160 2312 2261 2256 2244 2265 2193 2048 1939 1948 2046 2153 2215 2218 2197 2166 2169 2202 2277 2354 2466 2484 2508 2524 2531 2619 2596 2547 2268 1768 1728 1904 1682 1765 1938 2001 1966 1764 1524 1411 1457 1464 1464
222 347 418 730 920 904 948 1320 1705 1902 2122 2638 2972 3289 3441 3386 3207 3024 2966 2982 2961 2974 2990 3014 3006 2981 3030 3036 3000 2960 2930 2908 2895 2880 2854 2804 2785 2788 2626 2501 2422 2359 2275 2350 2359 2371 2385 2361 2299 2212 2120 2112 2173 2276 2324 2332 2365 2311 2310 2372 2423 2420 2415 2455 2509 2536 2442 2386 2301 2057 1756 1632 1455 1436 1659 1631 1594 1692 1881 1676 1540 1470 1413 1414 1308
7 342 443 511 554 588 756 928 1226 1595 1940 2298 2649 2986 3274 3425 3382 3277 3166 3171 3105 3012 2963 2974 3014 3086 3105 3108 3116 3103 3083 3079 3068 3057 3049 3047 3020 2915 2790 2716 2648 2598 2478 2372 2239 2356 2392 2425 2427 2398 2364 2357 2316 2346 2364 2352 2350 2324 2343 2391 2449 2482 2447 2430 2452 2336 2108 2060 1996 1923 1822 1724 1710 1956 1774 1630 1674 1700 1770 1890 1792 1640 1452 1258 1182
287 368 441 496 535 548 623 750 1015 1268 1514 1894 2265 2583 2879 3126 3330 3334 3280 3186 3220 3191 3193 3092 3041 3158 3223 3266 3295 3242 3196 3221 3208 3222 3226 3294 3342 3280 3008 3050 3108 3078 2934 2747 2563 2418 2342 2252 2268 2302 2367 2450 2508 2506 2466 2402 2289 2222 2246 2332 2407 2462 2453 2324 2179 1857 1878 1869 1791 1682 1660 1793 1756 1523 1398 1520 1536 1729 1871 1824 1742 1730 1525 1276 1120
334 401 457 516 580 624 671 717 800 1052 1284 1555 1909 2226 2443 2705 2967 3171 3328 3372 3278 3297 3278 3211 3171 3168 3250 3417 3446 3407 3398 3372 3377 3405 3431 3467 3373 3259 3320 3360 3375 3360 3384 3250 3059 2849 2630 2421 2233 2288 2359 2479 2527 2493 2452 2364 2256 2234 2276 2322 2418 2554 2392 2254 2052 2002 2032 1991 1918 1870 2008 2051 1842 1600 1672 1582 1947 2154 2040 1917 1996 1928 1631 1284 1171
278 377 464 536 615 679 708 744 757 849 1167 1442 1699 1955 2131 2271 2465 2729 2962 3178 3284 3294 3310 3314 3286 3248 3216 3221 3327 3379 3480 3559 3625 3644 3652 3700 3737 3580 3351 3369 3479 3466 3488 3418 3265 3075 2855 2682 2507 2344 2173 2207 2342 2404 2375 2323 2323 2293 2299 2362 2563 2607 2608 2521 2232 2028 2064 2102 2020 2043 2304 2424 2083 1862 2082 2338 2257 2250 2166 2146 2030 1775 1450 1210 1230
4 163 301 385 498 646 694 767 879 917 986 1193 1459 1706 1911 2097 2234 2340 2477 2685 2921 3048 3149 3264 3372 3423 3442 3387 3048 2988 3203 3420 3563 3596 3598 3773 3931 3934 3756 3630 3562 3539 3546 3493 3322 3106 2860 2694 2568 2419 2327 2190 2168 2101 2216 2256 2286 2340 2292 2370 2656 2579 2762 2602 2410 2349 2264 2302 2467 2497 2517 2448 2167 2142 2418 2450 2231 1899 1711 1679 1694 1355 1145 1050 1081
5 36 251 332 450 532 657 747 892 1018 1092 1173 1302 1500 1695 1846 2015 2206 2290 2371 2454 2716 3035 3311 3459 3515 3466 3129 2668 2687 2884 3113 3224 3246 3383 3672 3914 3921 3762 3700 3750 3685 3636 3536 3360 3048 2799 2654 2565 2494 2443 2448 2531 2498 2385 2338 2389 2436 2376 2429 2707 2836 2851 2703 2528 2394 2394 2568 2718 2726 2677 2597 2506 2302 2099 2251 2199 1914 1768 1630 1492 1209 1001 975 989
6 88 265 304 364 468 555 714 880 1012 1032 1094 1266 1411 1633 1876 1984 2002 2103 2185 2232 2310 2428 2692 2972 3105 3033 2702 2596 2665 2746 2856 3039 3015 2988 3126 3326 3242 3256 3435 3684 3628 3633 3517 3281 2970 2776 2707 2645 2610 2606 2628 2677 2712 2646 2493 2459 2591 2616 2640 2716 2435 2334 2318 2223 2233 2491 2634 2660 2580 2456 2484 2599 2616 1950 1988 2148 2067 1889 1428 1075 1054 1008 977 924
5 8 97 276 382 476 546 656 850 945 1024 1062 1187 1273 1450 1756 1974 2046 2031 2004 2054 2140 2216 2285 2378 2407 2437 2433 2391 2462 2620 2754 2831 2825 2676 2506 2400 2653 2979 3433 3648 3610 3522 3396 3209 2957 2880 2818 2803 2702 2686 2698 2742 2838 2637 2442 2522 2727 2722 2741 2560 2206 2168 2193 2391 2480 2495 2507 2475 2270 2055 2007 2104 2265 2282 2122 1894 1641 1232 1073 986 947 873 814 792
7 5 76 287 349 426 562 682 837 948 966 1078 1148 1242 1320 1395 1634 1962 2123 2100 2075 2056 2092 2212 2308 2392 2349 2270 2188 2265 2363 2520 2696 2673 2558 2393 2279 2640 3077 3300 3406 3424 3404 3274 3136 3066 2996 2948 2852 2797 2734 2802 2819 2576 2001 1720 2088 2187 2460 2755 2594 2078 2192 2293 2292 2266 2309 2249 2122 1838 1782 1803 1840 1916 1738 1505 1330 1150 922 931 928 952 862 718 672
4 4 96 316 400 446 509 660 822 951 1042 1083 1102 1185 1211 1211 1258 1382 1636 1924 2166 2229 2224 2158 2206 2304 2360 2364 2314 2305 2376 2469 2502 2529 2436 2252 2234 2546 2887 3021 3144 3330 3258 3146 3120 2994 2975 2928 2838 2796 2860 2920 2963 2757 1786 1062 1341 1553 1800 2062 2423 2398 2293 2235 2128 1968 1928 1862 1794 1840 1805 1650 1398 1286 1210 1147 1100 1093 1029 901 681 498 574 567 511
3 6 4 324 438 519 583 601 668 878 1024 1083 1093 1096 1104 1080 1191 1328 1419 1569 1778 1993 2152 2268 2273 2258 2280 2274 2248 2232 2233 2252 2321 2326 2181 2048 2101 2360 2634 2873 3122 3338 3264 3086 2979 2962 3004 2928 2902 2975 3002 2990 2793 2428 1706 1107 1208 1434 1677 1850 1772 2070 2035 2012 1937 1921 1945 1763 1447 1432 1389 1244 1134 1016 915 902 906 844 617 393 365 284 281 332 18
2 3 4 272 427 556 652 738 760 758 758 863 956 922 964 1018 1125 1316 1492 1583 1683 1784 1932 2114 2190 2296 2326 2329 2308 2259 2176 2183 2278 2250 2062 1908 2061 2309 2605 2808 2972 3183 3208 3024 2957 2960 3016 3058 2984 2850 2813 2570 2182 1755 1465 1317 1660 1371 706 772 704 875 1408 1635 1734 1666 601 488 660 852 832 749 759 799 742 734 676 646 553 426 340 272 137 0 0
4 2 3 24 227 410 587 698 783 876 896 961 1031 1023 1056 1089 1181 1314 1461 1601 1700 1737 1796 2017 2176 2280 2410 2452 2386 2244 2069 2046 2033 1966 1918 1854 2006 2234 2406 2584 2792 3006 3067 2798 2815 2984 3078 3148 3007 2786 2367 2099 1849 1782 1787 1923 1804 1720 1234 726 734 920 1045 1073 1189 910 260 482 628 549 562 633 626 598 570 577 551 498 425 365 290 217 115 0 0
6 6 0 0 60 321 520 631 736 834 902 970 982 973 1014 1033 1063 1179 1321 1502 1577 1612 1644 1833 1967 2063 2126 2094 2136 2127 1837 1787 1801 1787 1708 1798 2076 2091 2098 2196 2588 2856 2732 2563 2608 2813 2852 2674 2058 1682 1743 1869 1844 1590 1212 1038 1102 932 829 718 738 832 944 880 872 872 866 556 185 376 451 501 507 505 549 552 537 452 369 316 0 182 122 0 1
0 2 2 1 1 262 436 570 659 797 931 1018 1052 1135 1104 1040 1044 1015 1116 1241 1310 1370 1456 1612 1777 1854 1849 1802 1768 1826 1861 1757 1596 1565 1397 1386 1905 1913 1848 1897 2296 2437 2408 2125 2030 2424 2391 2204 1773 1636 1546 1456 1390 1224 971 787 710 743 662 724 760 848 928 1105 1138 976 567 616 549 76 436 495 430 316 404 268 292 55 1 2 3 4 6 8 7
1 5 11 11 10 278 376 419 561 665 791 800 782 734 764 774 783 808 813 1060 1280 1370 1454 1470 1557 1585 1606 1544 1550 1575 1678 1596 1435 1352 1237 800 1140 1428 1642 1552 1546 1584 1290 1236 1618 1679 1680 1591 1473 1294 945 751 646 484 447 491 614 649 630 662 688 734 782 899 944 1063 570 23 250 379 474 426 388 226 44 78 132 120 31 1 2 3 5 3 5
Wind_Speed
13 14 15 14 15 14 13 nan nan nan nan nan nan nan nan nan nan nan nan 9 9 8 7 6 5 5 5 6 6 5 5 6 8 10 10 11 11 10 9 7 7 8 7 8 7 6 6 6 6 5 3 4 5 8 11 10 9 9 10 9 7 7 7 6 5 7 9 5 6 7 8 8 8 3 4 3 4 3 3 6 7 7 8 8 9
13 14 15 15 13 15 15 15 nan nan nan nan nan nan nan nan nan nan nan 8 9 6 5 6 6 4 4 5 5 5 5 6 8 10 10 10 11 10 8 7 6 7 6 7 7 6 5 6 6 5 3 3 4 4 6 8 9 9 9 8 6 6 7 8 4 5 7 9 8 8 7 6 5 4 2 3 3 1 2 3 3 6 7 6 6
13 16 16 15 14 16 17 17 nan nan nan nan nan nan nan nan nan nan nan nan 10 8 7 6 5 3 4 4 4 4 5 7 9 11 11 10 9 9 8 6 5 5 5 6 6 5 5 5 6 5 2 2 3 3 2 5 9 9 9 10 9 8 8 7 8 6 6 8 7 9 7 8 5 5 4 1 1 3 2 1 2 3 3 5 5
14 15 15 15 15 17 18 nan nan nan nan nan nan nan nan nan nan nan nan nan nan 10 9 7 6 4 3 3 3 4 5 7 10 12 11 11 10 9 8 7 6 5 4 5 5 4 4 4 5 4 2 2 2 2 2 3 7 9 10 11 11 9 10 9 7 7 8 8 9 8 9 10 8 7 5 3 2 2 4 2 3 2 1 3 5
13 14 15 16 17 17 17 18 17 nan nan nan nan nan nan nan nan nan nan nan nan nan 11 nan 8 6 4 3 3 4 5 6 9 12 13 13 11 10 9 8 7 5 4 4 4 3 4 4 5 2 1 1 2 2 1 2 4 7 9 11 11 12 12 11 9 9 8 7 9 10 10 10 9 9 8 7 6 6 5 4 4 3 3 5 8
12 14 17 17 17 16 16 16 15 13 nan nan nan nan nan nan nan nan nan nan nan nan nan nan 9 nan 7 6 4 4 5 7 8 10 12 13 12 11 10 9 8 6 5 4 3 2 3 4 3 2 1 0 1 1 2 2 4 5 7 10 12 13 13 12 11 10 10 8 9 11 13 12 13 11 10 9 8 7 6 5 7 7 7 6 9
13 14 16 16 17 16 15 13 14 15 15 16 nan nan nan nan nan nan nan nan nan nan nan nan 11 11 nan 8 6 5 5 7 8 9 12 13 13 12 11 9 8 7 6 4 3 2 2 2 1 0 0 0 1 1 2 4 4 4 5 7 11 13 13 13 13 12 11 11 12 11 11 13 12 11 13 12 9 8 7 7 8 9 9 9 8
15 15 15 16 15 14 14 15 16 17 18 19 19 nan nan nan nan nan nan nan nan nan nan nan nan 13 11 9 7 7 7 7 8 9 11 13 14 13 12 10 9 8 7 5 3 2 1 0 1 2 2 1 1 2 4 3 6 6 6 8 10 12 13 14 15 14 13 13 12 11 14 14 15 13 14 16 14 12 11 12 8 9 10 9 9
21 18 18 16 16 16 19 20 20 19 20 21 20 19 18 nan nan nan nan nan nan nan 13 14 14 13 12 11 9 9 7 6 8 9 10 12 14 14 13 11 10 9 8 6 5 3 2 1 2 3 4 5 5 3 3 5 7 6 6 9 9 10 12 14 14 15 14 14 12 13 13 14 13 14 14 13 12 10 13 16 12 12 16 13 7
27 23 21 18 17 17 16 17 19 19 19 19 19 19 19 19 18 nan nan nan nan nan nan 15 13 12 11 10 9 9 8 9 6 3 6 11 13 15 15 13 12 11 9 8 6 5 3 2 1 5 7 8 7 6 5 4 6 8 7 9 8 10 10 12 13 15 16 15 13 12 12 11 10 11 12 12 14 16 16 16 16 15 18 16 14
32 28 24 20 17 16 15 16 18 19 19 19 20 20 19 20 20 18 18 nan nan nan nan nan 13 13 12 11 9 8 8 9 3 4 4 5 11 14 14 14 13 11 10 8 6 5 5 4 3 1 3 5 6 9 8 7 6 6 6 7 9 11 11 11 12 15 17 16 16 16 14 11 9 10 11 11 15 17 18 20 19 21 21 21 15
26 23 23 31 30 23 19 16 17 19 21 21 21 21 22 22 21 20 19 18 19 19 nan nan 14 14 14 12 10 8 9 7 5 4 4 5 8 13 16 16 15 13 12 9 8 7 6 5 5 5 5 6 8 8 8 9 8 7 7 6 6 7 9 11 11 14 17 17 17 16 17 14 10 10 10 15 13 18 20 22 22 21 19 20 20
36 27 24 20 14 16 18 18 18 19 21 21 22 22 22 21 21 21 20 21 23 21 18 17 nan 16 15 13 11 10 10 8 7 5 5 5 5 9 15 16 16 15 14 12 10 9 8 7 6 7 7 5 7 10 11 10 9 9 8 7 6 6 6 6 9 12 16 17 16 15 17 18 13 9 12 14 19 19 22 22 22 22 21 20 20
28 27 24 19 17 18 17 17 18 20 21 22 23 23 21 19 19 21 23 25 24 21 20 18 18 17 16 15 14 14 12 10 9 8 6 6 6 9 14 15 16 16 15 14 13 11 10 9 8 7 8 10 11 12 13 13 12 12 11 12 12 9 8 9 8 9 13 15 15 13 14 22 14 12 12 18 20 17 19 17 21 20 19 18 20
24 25 26 23 23 22 17 14 14 16 19 22 24 22 20 19 20 22 24 24 24 23 23 22 20 19 18 17 17 16 15 11 13 11 9 8 8 11 13 15 16 16 16 16 15 14 13 12 11 9 9 11 12 13 14 14 15 14 13 12 13 13 14 15 16 17 18 17 15 13 12 16 15 12 15 19 18 18 19 18 19 20 18 19 19
28 29 30 30 25 22 20 17 17 19 21 22 23 23 22 21 20 22 24 25 25 26 26 25 22 21 20 19 18 16 16 15 16 14 12 12 13 16 15 13 14 14 15 16 16 16 16 15 14 13 11 11 10 11 13 16 16 15 14 14 13 14 14 14 14 16 18 19 18 15 14 13 14 15 18 20 20 21 21 20 22 22 19 17 19
30 31 32 30 27 27 26 23 23 23 23 22 20 21 22 22 23 26 25 25 25 25 24 24 25 24 23 22 19 17 18 18 19 17 17 16 21 19 16 15 14 13 13 16 17 17 18 18 18 17 15 14 11 13 14 15 17 15 15 15 15 15 13 15 17 15 15 15 15 14 12 10 11 11 12 17 22 26 26 24 19 23 21 19 20
33 33 33 31 30 29 26 23 22 24 23 19 17 18 20 23 24 26 25 24 24 24 26 26 26 26 24 22 20 19 19 21 22 21 20 23 23 19 18 17 15 14 14 15 18 19 19 16 18 18 16 15 13 15 16 20 18 16 17 16 15 14 13 15 19 18 19 17 15 13 12 11 12 12 13 17 22 25 27 22 23 27 22 23 22
41 38 34 31 29 28 25 21 18 20 19 17 17 17 18 20 24 27 26 26 25 27 28 28 27 27 25 24 21 20 21 22 24 23 23 26 24 21 20 19 16 15 16 17 19 20 21 19 15 16 17 16 15 18 20 23 20 19 19 19 15 14 14 18 20 18 20 20 18 19 18 17 18 19 19 17 22 25 24 21 25 27 24 25 25
42 42 41 38 33 30 27 21 18 18 17 17 17 16 18 22 24 26 26 27 28 29 28 28 26 27 27 26 26 23 22 24 26 23 25 26 26 25 24 22 17 15 17 18 20 20 20 22 20 16 15 16 17 20 23 24 21 21 23 21 17 14 17 20 19 19 18 19 18 21 20 22 24 25 25 25 26 26 25 24 25 26 25 26 28
43 43 41 39 38 35 30 24 20 19 19 20 19 19 19 20 22 24 26 28 29 29 27 27 27 26 27 27 26 25 24 24 25 25 24 26 26 27 27 23 21 20 20 20 20 20 21 22 24 23 20 19 19 22 25 25 22 22 23 21 19 16 19 22 17 17 19 19 19 20 21 23 25 28 29 28 27 27 26 26 26 27 28 28 28
45 45 44 41 39 36 33 28 23 23 23 23 23 21 20 20 22 23 26 28 27 26 27 27 27 26 27 26 25 24 23 20 24 24 24 25 27 27 27 24 25 25 23 21 20 21 22 24 26 25 25 24 23 24 25 27 24 25 21 18 16 15 19 22 21 21 20 20 21 21 22 24 25 27 28 28 27 28 28 28 28 28 28 29 30
44 44 44 44 42 39 36 33 29 28 28 26 24 23 23 22 22 24 25 26 26 26 26 27 27 26 27 26 26 24 24 24 18 23 23 24 26 26 23 24 26 27 25 21 20 22 25 26 26 25 27 27 27 26 28 28 30 26 19 18 18 16 21 23 23 22 21 21 23 22 24 25 26 26 27 27 27 27 28 28 30 30 28 28 28
44 43 43 43 43 40 38 33 28 29 29 29 28 27 26 24 23 25 25 26 27 26 27 28 27 26 25 25 25 24 24 23 21 17 23 24 25 24 22 19 24 26 25 22 23 24 26 28 28 25 27 27 27 29 30 32 32 25 22 19 19 22 26 24 24 24 23 23 22 23 24 27 26 26 27 27 25 27 28 29 30 30 30 31 32
45 46 44 43 43 42 39 37 34 31 32 32 30 29 27 26 26 25 26 25 25 25 25 26 25 24 24 22 22 23 23 23 22 21 20 26 25 25 23 20 18 22 23 21 23 25 25 25 26 26 26 27 29 32 34 33 30 28 25 23 25 29 27 26 25 27 24 23 23 24 25 27 28 27 29 30 30 31 32 33 33 33 32 32 32
44 48 47 43 40 40 41 40 39 38 37 37 32 29 27 28 27 28 27 25 23 22 23 24 23 23 21 19 19 20 23 24 22 23 25 25 26 24 24 22 20 20 19 18 18 19 22 25 25 25 26 29 34 36 35 35 33 29 27 29 33 30 30 29 28 27 24 23 24 24 25 28 29 29 31 33 32 31 32 33 34 31 31 31 30
nan 47 48 46 43 43 42 41 42 42 43 44 41 34 30 30 30 30 28 25 23 21 22 23 22 21 18 16 17 20 22 22 22 22 27 27 27 27 26 24 23 24 23 20 22 26 26 29 31 31 32 32 32 32 33 36 38 35 33 32 32 31 31 31 29 27 25 25 26 26 27 29 33 33 31 31 29 28 29 31 29 27 27 27 30
nan nan nan 44 42 43 44 42 40 40 42 48 49 42 34 32 32 31 28 26 25 24 24 24 21 19 17 17 18 20 20 20 19 19 24 28 28 30 30 30 32 32 29 26 28 31 33 34 36 39 39 39 38 37 35 36 36 36 34 34 33 32 30 29 29 28 27 27 27 29 31 34 31 29 30 28 26 25 25 26 26 25 26 30 32
nan nan nan 42 42 44 46 46 44 40 40 43 45 42 37 34 33 31 28 29 27 26 26 23 20 19 20 20 20 20 19 16 15 20 25 28 30 32 34 32 34 34 29 30 36 38 36 34 35 37 38 37 38 36 35 35 35 35 35 35 34 34 33 33 30 28 27 29 28 28 29 31 29 28 27 25 23 23 24 25 25 28 28 30 33
nan nan nan 44 44 44 46 46 45 43 41 40 40 40 40 35 31 31 30 26 23 23 26 25 23 24 23 20 21 20 18 16 16 24 27 30 30 34 34 34 34 33 31 36 41 40 37 33 32 32 34 36 35 35 33 33 34 36 35 35 35 34 33 32 30 29 29 28 28 29 30 30 27 26 24 23 23 24 25 27 28 30 32 31 33
nan nan nan 47 46 46 46 45 45 45 44 43 40 38 35 36 44 37 29 28 26 24 24 20 21 23 23 22 21 16 15 17 22 28 29 32 34 35 35 35 35 32 40 51 44 38 36 35 34 34 32 33 33 32 32 32 33 35 36 37 35 32 31 32 31 30 29 29 30 30 31 28 25 26 25 25 26 26 27 28 31 32 32 33 34
nan nan nan nan 48 47 47 47 46 45 45 43 41 38 37 38 37 42 46 42 35 28 26 24 23 25 22 21 24 26 22 22 26 29 30 34 36 36 36 36 36 39 43 47 41 35 34 35 36 35 34 33 31 31 31 32 33 35 37 37 34 32 32 30 31 32 30 30 31 31 31 28 26 28 31 29 26 26 28 30 32 33 32 33 35
nan nan 50 48 47 47 48 49 48 47 46 45 43 41 40 39 38 36 38 40 39 35 29 26 25 25 23 21 20 23 26 28 27 30 34 36 38 37 37 38 38 42 52 45 35 33 34 34 34 35 36 33 32 32 31 31 33 35 36 35 33 32 31 31 35 34 32 32 35 35 34 37 41 40 33 25 23 25 28 31 33 34 35 36 36
53 52 48 45 45 46 48 49 49 49 50 49 46 44 41 39 38 37 37 37 40 42 40 34 29 27 27 27 26 24 27 31 31 33 36 37 37 38 41 41 43 48 47 40 37 32 33 33 32 33 35 34 33 32 31 31 33 34 34 34 33 33 33 36 38 36 38 39 39 40 46 47 42 38 33 25 20 23 29 33 37 38 36 37 39
56 56 56 54 51 50 49 49 50 51 52 51 50 47 43 41 41 40 39 37 35 34 33 34 36 36 33 34 34 35 35 37 36 34 36 39 39 42 52 54 50 45 40 36 35 33 32 32 32 34 34 34 33 33 31 31 33 34 34 34 34 35 37 37 36 37 37 36 34 36 43 47 46 42 35 27 22 25 29 34 36 37 38 40 41
nan 59 56 53 51 50 50 49 49 50 51 52 52 50 49 49 46 44 43 41 39 37 36 38 45 48 47 47 45 41 40 38 39 38 37 40 48 59 51 44 41 39 39 38 34 32 31 31 34 34 34 33 35 34 32 32 34 35 35 36 35 36 37 37 39 40 39 38 36 39 45 44 43 41 35 27 23 27 32 35 38 40 41 42 43
62 61 59 55 52 50 50 51 50 50 52 54 55 54 52 50 50 50 49 45 41 40 39 47 50 48 51 49 49 49 48 45 45 47 50 49 47 49 45 42 39 40 40 38 35 32 31 32 36 37 35 34 36 36 33 32 35 36 36 36 36 38 37 39 40 41 40 39 41 44 43 39 37 38 36 29 28 32 36 39 40 41 42 44 47
64 61 60 57 53 51 51 50 50 49 52 54 55 56 55 54 53 52 50 46 44 43 44 48 48 47 44 44 50 50 54 58 63 61 55 54 51 43 42 42 44 43 41 39 36 33 31 34 38 37 36 37 39 38 34 31 34 36 36 36 38 37 38 38 38 39 41 41 40 42 41 37 37 39 40 39 40 40 38 39 41 42 42 46 49
68 62 58 56 54 53 53 53 51 51 53 54 54 55 55 56 56 54 51 47 45 45 47 50 48 47 46 53 57 58 61 57 53 49 48 45 46 44 44 45 47 45 42 40 38 37 35 35 37 38 38 41 41 38 33 31 33 35 38 42 42 39 36 37 38 40 40 38 37 38 37 36 37 41 44 45 45 43 39 39 41 44 47 49 50
nan 66 61 59 57 55 55 55 53 51 52 52 52 52 54 53 53 51 50 48 46 46 47 47 46 45 49 55 56 59 56 54 53 53 54 53 50 48 48 47 47 45 43 43 42 38 36 37 40 41 42 43 40 37 33 31 33 37 42 42 39 37 37 38 39 39 36 36 35 34 37 39 41 43 42 42 45 46 43 43 45 47 50 52 54
nan nan 65 61 58 58 58 58 56 53 52 50 50 50 49 49 50 49 48 46 46 46 46 47 47 49 53 51 53 57 57 54 55 56 57 57 57 57 54 50 46 44 47 47 43 43 44 45 46 47 46 43 41 39 35 33 34 37 39 41 40 41 42 41 39 36 37 38 34 34 37 42 46 47 45 46 48 48 47 48 49 51 53 55 57
nan nan 66 64 62 62 63 61 58 56 55 53 49 47 45 45 45 45 45 45 45 45 47 49 51 55 57 58 58 58 61 64 63 61 61 62 64 64 64 60 55 53 54 50 49 52 53 53 51 50 49 46 42 37 36 35 36 36 40 45 49 48 45 41 37 35 36 37 37 38 40 43 45 47 49 49 50 49 50 51 53 54 56 57 58
nan nan nan 67 66 66 66 63 60 59 58 55 51 48 44 42 41 40 40 42 44 45 48 51 56 58 59 60 63 66 68 68 66 66 65 64 66 69 70 67 63 61 60 58 55 55 56 55 54 52 53 54 53 48 43 39 38 39 44 48 44 40 39 36 33 32 34 38 41 44 46 46 48 49 50 51 52 53 54 56 57 57 58 58 58
nan nan nan 68 68 68 66 63 62 59 57 55 54 52 49 45 40 38 37 39 42 45 48 54 56 55 57 58 62 65 68 68 67 66 64 63 62 65 67 68 66 63 63 63 60 57 57 58 58 57 57 59 61 57 51 47 44 41 40 42 44 43 39 35 33 33 36 41 45 47 48 49 50 51 53 54 55 57 57 57 58 58 58 58 60
nan nan nan 69 70 71 68 64 62 59 59 57 57 57 55 52 44 40 39 39 42 46 50 53 55 56 56 57 58 61 63 64 63 61 61 61 61 62 64 67 68 66 64 64 64 61 60 60 58 58 60 61 63 63 59 54 49 45 44 47 50 50 43 38 39 41 43 47 50 50 49 50 51 53 55 55 56 58 58 58 59 60 62 62 62
nan nan nan 74 74 73 70 65 64 62 60 59 57 58 58 57 54 48 45 48 50 51 53 54 55 56 57 57 58 60 60 59 58 58 58 59 60 61 62 67 69 67 65 66 66 65 63 64 63 63 63 63 63 64 63 60 55 51 48 46 46 42 36 35 42 48 48 48 48 48 49 51 52 53 55 56 57 59 60 60 61 62 64 65 nan
nan nan nan 78 75 74 72 70 67 65 63 59 57 56 58 59 57 56 54 53 53 53 54 55 56 56 57 58 57 57 59 61 61 60 60 61 63 64 65 68 71 68 63 64 66 66 65 65 65 66 65 64 64 65 65 63 62 59 54 47 44 43 42 42 45 48 49 47 47 48 50 53 54 54 56 59 61 62 63 62 62 63 62 nan nan
nan nan nan nan 81 77 74 73 72 70 65 61 58 57 59 59 59 59 57 54 55 55 56 56 57 57 58 59 60 59 60 62 63 64 63 63 66 68 68 68 70 69 68 70 71 70 69 69 67 65 63 62 63 65 65 65 65 65 61 55 51 51 52 51 50 53 54 54 52 53 56 57 56 56 57 60 61 62 62 62 62 62 63 nan nan
nan nan nan nan nan 85 79 77 76 73 68 62 60 60 58 58 60 60 60 58 57 57 57 58 59 60 60 60 61 63 63 63 63 63 64 66 69 71 71 70 70 72 73 75 76 76 75 73 71 69 66 63 62 63 64 65 63 62 60 57 58 62 63 61 56 57 60 60 59 60 61 61 61 60 60 60 61 61 62 63 nan 65 63 nan nan
nan nan nan nan nan 92 87 82 78 74 70 65 62 62 63 63 61 62 62 61 61 62 62 61 61 61 62 62 62 62 63 63 62 63 63 66 69 70 72 75 76 76 77 78 80 80 79 76 74 74 73 68 65 65 66 64 59 57 56 58 65 67 67 68 67 66 62 61 63 nan 64 64 63 62 61 61 62 nan nan nan nan nan nan nan nan
nan nan nan nan nan 88 88 87 84 80 75 70 67 67 68 66 64 62 62 62 63 62 63 64 64 63 62 62 63 62 62 63 62 61 61 63 66 68 71 76 80 81 83 83 81 79 79 76 74 73 73 70 66 65 66 64 60 58 62 68 69 69 68 66 65 68 70 nan 65 65 65 65 65 64 nan nan 64 64 nan nan nan nan nan nan nan
Wind_Direction
223 219 215 204 205 210 213 nan nan nan nan nan nan nan nan nan nan nan nan 231 228 222 212 205 191 160 138 124 114 109 106 123 149 156 156 153 151 149 149 142 124 118 119 113 116 109 99 94 96 93 110 149 161 166 167 166 183 187 198 202 203 203 226 223 202 152 160 160 155 149 156 165 156 186 165 127 113 97 80 59 53 49 49 46 41
215 220 219 213 207 207 211 214 nan nan nan nan nan nan nan nan nan nan nan 242 243 237 229 217 205 177 141 118 113 111 113 125 152 164 158 158 157 162 155 151 140 135 134 118 112 111 112 111 111 106 100 91 127 154 170 182 192 198 202 211 210 208 213 226 219 209 164 184 179 179 169 188 177 206 211 152 118 110 105 82 54 27 34 29 19
213 216 218 216 210 207 211 214 nan nan nan nan nan nan nan nan nan nan nan nan 237 238 237 231 222 202 148 126 118 126 126 138 161 169 164 162 159 161 161 157 146 140 129 116 115 124 119 109 106 113 116 96 97 110 184 203 214 217 210 215 214 215 227 230 233 215 187 177 201 193 196 204 216 185 208 246 340 351 14 30 44 63 16 346 359
212 213 213 214 217 214 210 nan nan nan nan nan nan nan nan nan nan nan nan nan nan 231 234 234 231 223 180 157 153 158 160 156 167 174 169 167 163 159 164 164 155 143 126 116 114 115 106 111 99 101 118 109 117 124 164 219 225 221 218 218 223 219 230 240 239 230 225 205 208 220 207 209 202 213 217 225 276 271 297 330 343 4 340 311 329
213 210 211 215 218 216 212 214 214 nan nan nan nan nan nan nan nan nan nan nan nan nan 225 nan 229 232 226 210 193 185 181 173 170 175 178 177 171 167 167 168 163 149 134 122 114 109 107 95 100 108 114 126 145 157 200 218 231 232 223 223 227 224 229 241 243 246 234 212 209 224 225 222 223 218 230 220 222 255 272 285 295 301 311 316 322
214 211 209 214 216 217 218 217 213 213 nan nan nan nan nan nan nan nan nan nan nan nan nan nan 226 nan 227 223 215 197 199 197 179 176 181 183 181 177 175 173 168 165 155 145 131 121 100 96 111 141 176 113 117 197 234 238 244 246 233 228 229 230 229 231 240 246 249 235 233 215 231 225 221 225 232 239 228 234 240 255 266 287 297 294 314
219 213 210 211 213 216 220 218 217 216 215 214 nan nan nan nan nan nan nan nan nan nan nan nan 220 226 nan 223 216 205 202 207 199 185 184 188 186 184 180 178 174 176 174 160 164 151 111 92 97 124 87 141 183 212 241 242 253 249 256 244 240 238 231 230 237 242 247 240 236 243 229 235 242 222 233 241 244 264 263 243 260 282 286 306 318
216 212 211 207 206 212 215 215 215 216 217 217 218 nan nan nan nan nan nan nan nan nan nan nan nan 225 223 221 212 207 200 205 210 200 191 192 192 188 187 184 179 179 178 181 187 180 150 81 359 326 349 357 303 227 258 252 256 247 248 252 248 246 237 234 234 239 241 244 247 236 245 242 236 238 235 235 232 240 268 275 260 261 269 285 311
206 206 204 197 196 202 207 210 212 214 218 220 220 219 220 nan nan nan nan nan nan nan 223 222 223 225 224 222 214 208 195 193 209 212 203 197 197 193 191 189 186 182 181 182 195 199 206 251 301 321 331 8 18 7 301 284 267 258 246 257 251 252 245 242 240 241 241 245 238 249 245 237 240 235 226 237 244 250 254 263 269 274 280 280 285
204 202 195 188 191 197 202 208 214 218 221 224 225 225 223 222 222 nan nan nan nan nan nan 226 226 228 230 227 219 207 194 194 198 231 221 208 205 201 199 195 193 190 188 189 192 205 206 220 264 15 13 16 12 15 9 344 318 288 273 268 263 258 255 250 247 249 248 246 248 251 245 248 247 250 249 252 250 247 244 250 260 263 268 277 289
220 203 190 186 186 190 196 200 208 212 216 219 223 227 227 226 225 225 225 nan nan nan nan nan 228 229 233 233 224 206 194 195 194 230 233 229 214 209 206 203 203 199 198 200 193 201 211 221 232 289 338 345 341 359 359 357 342 330 317 302 288 279 266 262 256 256 255 253 252 255 260 258 262 264 262 253 258 260 259 260 261 259 266 271 275
237 235 219 204 190 187 188 193 200 204 211 213 216 220 223 223 223 225 227 229 229 231 nan nan 230 230 232 234 229 213 200 197 221 234 241 241 227 216 212 209 210 207 207 208 207 210 216 227 237 251 267 289 296 301 325 343 347 340 329 315 308 306 296 284 269 259 260 257 256 260 262 267 268 271 262 264 262 261 261 263 265 266 267 274 285
204 219 232 240 224 205 191 190 194 197 202 208 214 218 222 221 220 222 225 228 231 232 231 231 nan 232 233 234 231 225 213 217 235 246 248 253 249 230 218 217 216 215 216 218 217 219 225 233 236 250 259 309 299 294 295 300 320 339 335 322 304 292 280 278 279 274 268 269 267 265 276 273 270 272 275 270 267 266 262 264 266 271 277 281 286
212 201 212 228 235 233 220 211 204 191 194 202 210 217 219 219 220 222 223 228 231 232 233 233 232 234 234 234 232 229 227 230 251 253 253 260 259 245 221 223 221 220 223 227 229 231 236 242 249 251 259 265 272 284 287 294 294 291 293 291 288 284 290 296 296 295 285 280 278 279 283 284 282 272 272 267 266 269 272 272 274 273 280 291 291
221 208 206 212 226 235 241 242 226 201 195 199 206 211 217 219 221 222 224 229 232 233 234 233 233 233 233 236 234 232 231 247 257 261 258 261 261 252 226 225 224 222 224 229 235 240 244 249 254 260 263 266 270 279 283 288 289 291 290 290 289 285 281 275 275 277 280 287 291 296 300 296 289 276 269 269 272 278 284 286 287 287 287 284 285
221 214 210 208 209 217 232 242 234 216 204 201 202 204 208 214 220 224 223 223 226 230 232 234 234 235 236 237 238 235 236 256 264 266 268 262 263 241 232 230 229 226 226 231 236 241 248 253 256 260 262 264 272 293 287 277 278 284 286 284 281 281 284 289 292 284 280 283 287 292 297 301 292 277 272 273 274 276 281 279 279 284 287 292 297
226 219 213 212 209 206 210 217 221 222 217 209 202 201 206 210 214 221 223 222 223 227 231 234 233 234 236 237 239 237 237 254 268 272 270 270 255 239 237 234 232 230 227 233 237 240 246 253 257 258 260 262 270 282 282 277 267 273 275 274 275 276 279 279 292 303 300 297 301 305 310 314 304 291 283 282 280 281 280 280 289 293 296 294 292
225 224 219 214 208 207 210 213 218 224 223 215 207 202 206 212 216 222 222 222 222 222 224 226 229 232 236 236 237 235 235 248 266 268 273 274 269 253 244 240 235 233 230 233 237 239 245 262 262 258 259 261 269 275 276 270 262 264 264 264 264 269 274 276 273 282 300 307 309 306 299 293 289 284 280 288 294 288 288 293 291 292 300 298 299
217 221 222 221 215 210 212 219 226 230 225 217 213 208 211 216 220 224 223 221 220 222 222 222 224 227 230 232 235 235 230 240 260 267 273 276 273 257 254 247 241 237 237 237 239 240 241 248 263 264 260 259 266 269 273 270 260 261 264 263 264 267 273 271 276 279 281 282 282 280 272 275 277 280 282 291 296 299 298 300 293 297 301 301 305
213 213 212 213 213 213 214 218 227 231 224 219 220 217 215 219 225 226 225 223 222 223 223 223 222 223 226 229 230 231 230 233 246 264 269 276 284 269 259 257 252 247 244 244 242 243 245 245 251 260 265 261 260 265 269 276 265 258 260 264 267 268 264 267 275 280 280 287 287 287 285 277 274 275 276 278 283 292 299 300 299 301 303 306 308
213 214 213 209 207 211 216 218 219 222 221 220 224 224 222 224 228 228 228 226 225 224 225 225 223 222 225 228 229 231 231 233 241 261 266 275 282 278 262 265 262 255 249 247 247 248 249 251 250 259 265 261 258 260 264 270 271 260 262 264 268 268 262 264 268 281 279 281 284 284 283 279 278 277 277 280 284 288 293 298 301 304 306 308 308
213 215 213 210 207 208 212 216 215 214 218 224 228 228 227 228 230 231 230 229 228 227 226 226 224 223 225 227 229 230 233 242 238 254 267 272 276 284 266 265 267 262 256 250 250 251 254 255 253 259 268 266 263 261 264 267 271 261 260 269 269 267 263 266 266 268 273 277 279 281 282 282 281 282 282 284 286 289 293 296 299 301 303 304 307
214 216 215 210 209 207 212 211 210 214 217 226 231 229 229 229 232 234 235 233 232 229 229 228 226 224 224 226 227 230 233 237 251 250 264 272 275 278 282 268 272 267 262 258 255 252 253 255 256 263 269 270 269 268 267 270 265 263 267 263 264 264 261 262 267 271 272 275 280 284 285 284 283 284 284 285 286 289 292 295 296 298 301 303 304
216 217 216 214 211 209 210 224 220 210 215 223 228 229 228 227 229 234 237 237 235 233 231 231 229 226 225 226 228 229 233 236 246 262 263 276 277 283 283 278 273 265 263 256 253 250 251 253 255 264 270 273 274 271 269 270 267 272 271 267 263 259 259 262 265 270 273 276 281 283 284 283 283 281 280 283 286 285 284 283 286 290 292 293 295
217 218 219 218 215 212 214 217 223 222 215 219 223 227 229 229 227 230 235 236 237 236 235 237 236 232 229 229 229 231 234 237 240 253 273 276 284 286 288 290 280 276 263 253 251 251 252 258 261 264 267 271 274 271 267 268 271 267 268 268 265 260 262 263 265 267 272 278 280 282 283 284 284 282 278 275 273 272 273 272 276 279 284 288 291
214 213 216 219 218 217 216 217 220 219 217 218 220 222 228 233 231 229 231 234 237 236 237 240 240 238 235 233 234 236 238 239 242 247 256 270 275 287 294 292 290 283 275 260 263 262 258 259 263 263 260 260 260 261 264 267 273 275 272 267 261 262 262 263 263 266 269 272 276 281 283 279 279 280 275 275 275 277 277 279 281 285 290 293 293
nan 211 215 216 217 220 218 218 217 216 215 214 215 219 228 234 233 230 231 233 234 234 236 238 237 238 237 234 236 239 242 242 244 248 253 259 261 264 267 266 271 270 262 251 247 249 247 246 247 251 251 259 262 261 261 261 263 264 265 266 265 263 263 265 267 268 268 269 272 275 276 278 275 276 277 279 281 281 283 286 289 293 296 297 297
nan nan nan 216 216 217 217 213 211 213 212 213 214 220 230 233 231 230 232 232 233 233 233 233 234 236 233 234 236 240 242 243 248 254 256 257 258 258 260 260 262 264 263 259 255 251 247 244 243 243 246 247 251 252 254 258 264 268 268 268 267 265 264 266 264 262 262 264 267 270 271 273 278 280 278 280 283 284 285 287 291 292 293 293 292
nan nan nan 215 215 217 217 213 208 206 207 211 216 222 230 231 228 229 231 232 236 239 238 236 237 235 234 235 240 242 245 250 255 260 260 267 267 263 261 262 261 262 269 272 262 256 254 254 252 252 252 253 253 254 255 258 262 267 268 267 265 264 263 265 267 267 266 266 269 274 277 277 276 274 276 277 280 284 284 286 287 292 293 295 300
nan nan nan 213 214 217 217 212 206 204 204 207 212 217 216 218 230 233 230 236 245 248 247 241 241 240 239 239 246 251 253 255 268 277 276 279 280 280 278 277 276 273 273 276 268 264 267 268 266 263 259 258 258 259 260 262 264 266 267 267 265 264 265 265 265 265 265 267 269 271 273 274 271 272 274 276 275 279 286 290 291 292 295 299 302
nan nan nan 213 215 217 216 213 210 208 207 208 214 219 222 220 217 217 222 237 248 250 254 252 250 253 251 243 246 257 250 246 255 267 273 275 278 280 280 281 283 284 274 263 263 268 270 273 272 268 266 264 263 264 264 264 265 266 266 267 267 268 267 266 266 266 264 264 266 267 267 269 268 266 269 272 278 282 282 283 286 291 297 302 303
nan nan nan nan 213 217 219 216 214 212 210 212 218 222 224 227 226 226 226 222 224 241 250 251 251 251 252 250 248 243 247 251 258 267 273 274 276 280 282 283 284 281 278 279 273 274 274 276 276 276 274 271 269 268 267 266 265 265 264 266 269 271 273 273 273 272 269 267 266 266 265 262 260 258 255 259 272 281 285 286 289 294 298 300 303
nan nan 217 215 213 215 218 219 219 218 217 218 221 222 225 228 232 230 226 233 234 231 233 239 247 250 250 252 258 256 254 255 259 263 269 273 276 280 282 282 282 280 272 270 276 279 278 279 279 279 278 276 273 271 269 268 266 266 268 272 274 275 277 277 275 274 271 267 267 267 261 246 242 246 253 258 274 283 286 289 290 292 295 298 299
220 219 220 218 217 220 222 223 225 223 221 221 221 220 221 225 227 228 231 228 223 222 224 230 236 237 235 239 244 244 245 253 259 262 265 270 274 276 278 270 266 272 281 281 282 284 283 283 283 281 279 276 273 271 269 268 267 267 268 269 269 269 271 272 275 277 274 273 274 273 263 259 259 260 258 261 274 283 286 287 289 291 296 298 299
223 216 207 211 220 220 223 226 227 225 223 222 221 219 218 220 221 224 228 230 231 233 232 230 234 244 240 235 234 234 236 237 245 257 265 266 270 270 264 259 260 261 261 265 275 280 282 283 282 279 277 275 274 272 271 268 264 263 265 266 266 264 263 269 272 269 266 262 261 261 260 264 271 275 271 269 276 282 284 285 288 292 293 292 292
nan 220 217 214 218 222 223 226 227 226 224 223 223 221 220 218 219 222 226 229 230 231 227 229 231 235 239 238 237 242 246 250 251 251 253 262 263 263 263 265 265 268 273 276 279 281 280 279 277 274 273 272 270 269 267 263 261 262 263 266 268 266 266 269 271 270 267 265 263 258 254 256 263 269 270 273 287 290 286 285 285 287 289 291 292
227 221 219 219 222 224 224 224 225 225 224 224 226 226 225 224 223 223 224 228 231 232 233 235 236 235 235 237 240 241 245 250 252 251 248 247 261 268 267 270 270 268 270 273 275 275 275 273 272 270 271 271 269 267 264 259 259 261 263 265 265 265 265 268 269 268 270 270 270 269 266 263 268 278 285 286 290 289 286 284 287 291 291 292 294
228 224 223 223 225 226 225 224 226 226 226 227 228 228 228 230 230 229 228 227 227 231 233 236 237 240 243 244 247 247 247 249 252 251 252 254 255 258 264 266 266 264 265 268 273 275 274 271 272 274 273 272 269 267 266 262 260 262 266 267 266 265 267 269 272 273 274 275 277 275 271 270 275 284 287 288 289 292 292 290 290 292 291 294 297
227 223 222 221 226 228 226 222 225 230 230 230 230 229 230 232 234 234 234 232 232 233 235 239 239 239 241 245 247 248 251 250 253 256 258 257 256 258 260 262 262 260 259 262 267 269 270 271 272 272 271 269 269 270 269 264 261 261 264 263 260 257 262 266 269 271 274 277 277 274 270 267 272 280 284 285 290 294 296 295 295 295 296 297 298
nan 224 225 224 228 230 227 224 223 226 230 231 231 231 231 232 235 237 239 239 238 239 240 242 243 243 245 247 248 251 253 254 254 256 257 257 258 259 260 260 259 259 258 258 262 270 273 271 270 270 270 269 271 270 267 262 261 262 264 267 267 266 264 264 266 270 274 276 276 271 267 268 272 278 281 285 290 293 294 295 295 295 295 295 295
nan nan 225 228 228 228 226 224 225 224 226 228 230 231 232 233 234 235 237 240 243 244 244 244 245 245 247 250 255 257 255 254 252 252 254 257 258 261 263 264 261 256 252 254 258 260 263 265 265 267 268 269 267 265 263 262 261 262 264 265 265 263 261 261 262 265 268 272 276 273 269 268 272 278 284 287 288 290 291 290 290 291 291 292 293
nan nan 227 229 228 225 223 224 226 224 222 222 227 231 233 235 235 234 234 235 237 241 244 246 247 249 251 256 255 256 251 248 250 253 253 254 255 258 259 257 254 250 248 248 250 253 256 258 260 260 264 268 266 261 257 257 258 262 265 263 259 258 259 260 261 262 266 269 271 270 268 268 270 273 277 279 282 284 284 285 285 286 287 288 288
nan nan nan 230 226 221 219 222 225 225 225 225 225 228 233 236 238 237 235 235 236 239 240 245 248 249 250 253 254 252 247 249 252 253 252 250 251 252 253 253 253 250 248 248 249 250 253 255 256 253 254 255 253 251 251 252 256 262 264 268 271 270 265 262 263 266 267 268 268 268 267 267 268 271 274 275 277 278 281 283 284 285 286 287 288
nan nan nan 229 224 219 218 221 225 227 229 229 230 232 234 235 239 241 240 238 238 239 241 245 250 251 251 253 253 249 247 249 253 254 253 251 251 253 254 255 256 254 250 249 250 249 249 251 252 251 250 251 253 253 254 252 247 247 252 263 267 264 259 255 256 260 265 268 267 267 267 268 270 272 273 274 277 279 280 281 283 284 286 286 287
nan nan nan 229 225 219 218 221 225 229 233 235 236 237 237 235 237 242 244 243 245 245 245 248 251 253 255 254 253 252 252 254 255 255 255 255 255 255 256 257 258 256 252 249 249 248 246 246 247 249 249 250 253 256 258 257 254 251 251 255 253 247 243 248 255 254 256 263 265 265 267 269 271 273 276 278 280 281 280 281 282 283 282 281 282
nan nan nan 229 226 222 220 222 226 230 233 236 238 240 240 238 235 235 241 246 246 247 247 248 249 252 254 255 255 256 258 258 258 257 256 256 257 257 256 257 257 257 254 250 249 249 247 246 247 248 249 250 251 253 256 258 258 257 259 262 256 246 243 253 260 261 262 263 262 263 267 270 272 275 278 279 280 281 283 282 282 283 283 282 nan
nan nan nan 228 226 224 223 225 228 231 233 235 236 239 241 241 241 240 238 241 247 250 250 252 253 253 253 253 253 254 254 254 255 255 255 258 259 258 257 257 259 258 254 249 248 248 248 247 246 247 247 248 249 249 251 255 257 257 258 259 257 256 259 263 261 261 265 267 267 269 272 273 273 274 277 279 281 282 282 282 284 285 284 nan nan
nan nan nan nan 226 226 227 229 229 230 234 236 237 238 240 243 245 245 244 243 244 246 248 250 252 253 253 251 251 251 252 253 254 255 257 257 256 255 254 255 256 257 255 249 246 246 246 246 246 245 243 244 246 248 248 250 252 253 254 256 258 261 263 264 264 264 267 268 267 269 271 272 272 275 277 279 280 281 280 281 283 284 284 nan nan
nan nan nan nan nan 231 232 233 232 232 232 235 238 240 242 245 247 248 249 248 246 246 247 249 249 250 251 251 251 252 253 254 255 255 256 256 253 252 253 253 253 254 253 248 245 244 245 245 246 246 244 242 242 245 249 252 251 249 251 255 257 257 258 260 263 266 268 270 271 272 273 273 274 276 277 278 280 280 281 282 nan 284 284 nan nan
nan nan nan nan nan 234 234 234 234 233 231 232 236 241 246 248 249 249 250 251 250 248 247 248 251 251 251 250 249 250 253 256 258 259 257 254 251 250 251 251 251 251 249 246 244 244 244 244 245 246 246 244 242 244 248 251 251 248 249 251 252 254 256 258 259 260 262 265 267 nan 273 275 276 276 278 280 281 nan nan nan nan nan nan nan nan
nan nan nan nan nan 234 233 233 233 232 231 233 237 243 246 248 251 252 251 252 253 252 251 250 251 251 250 249 249 250 254 256 257 259 259 255 251 250 249 248 248 248 247 245 244 243 243 242 243 244 244 244 244 246 247 247 248 249 248 248 248 250 253 256 260 262 263 nan 268 270 272 274 276 277 nan nan 281 281 nan nan nan nan nan nan nan